Location: Banff
(51.1667°N, 115.5667°W)
Time: 15:15:45
(UTC+00:00)

Altair - Pass Details

Date: 30 November 2020
Orbit: 1501 x 1682 km, 47.2° (Epoch: 15 January)

Event Time Altitude Azimuth Distance (km) Brightness Sun altitude
Rises 04:04:13 0° 225° (SW) 4,724 10.4 -40.5°
Reaches altitude 10° 04:07:27 10° 220° (SW) 3,719 9.7 -41.0°
Enters shadow 04:11:03 25° 208° (SSW) 2,702 8.7 -41.5°
